Starlink 31027

operational
NORAD ID: 58720 Int'l Des: 2024-002 Owner: SPXS Country: US Constellation: starlink
LEOCIRCULAR

About Starlink 31027

Description loading...

Live Position

Loading 3D Globe...

Upcoming Passes

Altitude History

Altitude vs Time

uPlot chart will show altitude changes over time

Two-Line Element Set

1 58720U 24002R 25304.84507956 .00000114 00000-0 15989-4 0 9990
2 58720 53.1623 108.0531 0001081 85.3971 274.7154 15.30187804102296
Epoch: Oct 31, 2025 • Age: 6 hours

Current Status

Altitude 488.2 km
Velocity 7.62 km/s
Sub-Earth Point -38.05°S, 107.79°W
Launch Date Jan 3, 2024
Age 1.8 years
Type internet

Technical Details

Classification Payload
Mass 730.00 kg
Dry Mass 700.00 kg
Total Mass 730.00 kg
Length 0.30 m
Diameter 4.10 m
Span 29.00 m
Shape Box + pan
Manufacturer SPXS
Bus Type Starlink V2M
Phase Status In Orbit
Owner/State SPXS/US

Large Constellations

Loading constellations...